Dauntless Aviation
Airports South America Argentina
SABE
AEP

Aeroparque Jorge Newbery

Buenos Aires, ARGENTINA

Airport Info
Suggest Updated Information for this Airport

Location

Latitude / Longitude: 34°33'33"S / 58°24'56"W
  34°33.552'S / 58°24.936'W
  -34.5592 / -58.4156

Nearby radio navigation aids

FDO SAN FERNANDO VOR/DME. 132.7° 10.6nm from FDO to field.
OP AEROPARQUE JORGE NEWBERY NDB. 131.1° 4.3nm from OP to field.

Runway Information

Runway 13 /31

Dimensions: 6890 x 131 ft.
Surface: ASP
 
Runway 13
Runway 31
Latitude: -34.553942 -34.563844
Longitude: -58.425247 -58.407506
Elevation: 18 ft. 18 ft.
Runway true heading: 126.3 306.3
 

Instrument Procedures

  Aerodrome Chart

STARs (Standard Terminal Arrivals)

  STAR Rwy 13/16 SARGO7C KOVUK7C TENIL7C BELGRANO7C
  STAR Rwy 13/16 PAGON7C SAN ANTONIO7C ASADA7C VALOS8C
  STAR Rwy 13/16 SURBO7A KUKEN1C PAPIX1C
  STAR Rwy 31 SURBO2B SARGO7D KOVUK7D TENIL7D BELGRANO7D VALOS7D ASADA7D
  STAR Rwy 31 PAGON7D SAN ANTONIO7D

IAPs (Instrument Approach Procedures)

  VOR (DME) ILS Rwy 13
  VOR (DMS) ILS (DME) Rwy 13
  LI ILS (DME) Rwy 13
  VOR (DME) LO LI Rwy 13
  LI LO LI Rwy 13
  LI Rwy 31
  LI Rwy 31

Departure Procedures

  SID Rwy 13/31 LANDA3B VIBAM38 ATOVO38
  SID Rwy 13/31 EZEIZA8
  SID Rwy 13/31 EL PALOMAR 8
  SID Rwy 13/31 KUKEN7 SURBO7 DORVO7 LA PLAYA7
Satellite photo at:
Airport distance calculator
From:
Weather Reports

METAR

SABE

SABE 241500Z 34012KT CAVOK 30/21 Q1007
SADF
10.6nm W
SADF 2415Z 32011KT CAVOK 30/19 Q1007
SAEZ
16.2nm S
SAEZ 241500Z 31010KT 999 BKN200 31/19 Q1007
SUCA
32.8nm NE
SUCA 241500Z 30014KT 9999 FEW043 BKN200 31/20 Q1006

TAF

SABE
TAF SABE 241100Z 2412/2512 34010KT 9999 FEW020 SCT100 TX30/2418Z TN17/2509Z BECMG 2414/2416 25015KT 9999 BKN020 FEW040TCU BKN100 BECMG 2420/2422 20030G40KT 3000 TSRA BKN015 FEW045CB OVC050 BECMG 2504/2506 19020KT 9999 SCT015 BKN020
SADF
10.6nm W
TAF SADF 241100Z 2412/2512 30010KT 9999 FEW020 SCT100 TX32/2418Z TN16/2509Z BECMG 2415/2417 21010KT SCT020 FEW040TCU BKN100 BECMG 2420/2422 21020G35KT 3000 TSRA SCT015 FEW040CB OVC050 BECMG 2505/2507 18015KT 8000 DZRA BKN010 BKN050
SAEZ
16.2nm S
TAF COR SAEZ 241100Z 2412/2512 34005KT CAVOK TX30/2418Z TN18/2509Z BECMG 2415/2418 24010KT 9999 SCT020 BKN100 BECMG 2419/2421 17010KT 7000 SHRA SCT010 BKN050 FEW050CB TEMPO 2420/2504 17015G35KT 3000 TSRA SCT005 BKN020 FEW040CB OVC050 BECMG 2506/2509 9999 NSW SCT020
SUCA
32.8nm NE
SUCA 231730Z 2318/2418 14015KT CAVOK TX32/2417Z TN22/2409Z BECMG 2402/2406 01010G20KT BECMG 2415/2417 27012KT 9999 SCT030 BKN080
Safelog

 

Dauntless Aviation

© 2007-2017 Dauntless Aviation, all rights reserved
Information provided via PilotNav comes from a variety of official and unofficial data sources. As errors are possible, do not use PilotNav for primary flight planning purposes. Verify any information that you receive via PilotNav with current and canonical charts and other official documents. The material in this database is subject to database copyrights held by Dauntless Aviation and may not be copied without the express permission of Dauntless Aviation - licenses for use of part of all of this data are available for purchase; enquire via the Dauntless Aviation helpdesk. A number of mechanisms and markers exist in the database to protect against and identify infringement / copyright. Automated queries against this website are stictly prohibited, and all activity is logged and analyzed.